Zurück zum Katalog

TITAN 3C TRANSTAGE DEB

AktivLEO
NORAD 3488·DEBRIS·🇺🇸 United States

Gestartet Oct 15, 1965 von Cape Canaveral Space Force Station

Loading…

Nächste Überflüge (nächste 24 Stunden)

TLE

AktuellSource: Space-Track

Epoche: Sep 14, 2026, 05:39 UTC

1 03488U 65082QJ  26257.23563432  .00001055  00000-0  13360-3 0  9991
2 03488  32.2273 228.6247 0023637 206.4902 153.4542 14.79113287211112

Verfolge TITAN 3C TRANSTAGE DEB in Echtzeit mit AllMySat

Download on the App Store